Location: Ponte Samoggia
(44.5667°N, 11.1333°E)
Time: 17:00:36
(UTC+00:00)

ALOS - Pass Details

Date: 26 May 2022
Orbit: 682 x 683 km, 97.9° (Epoch: 07 July)

Event Time Altitude Azimuth Distance (km) Brightness Sun altitude
Rises 02:31:02 0° 17° (NNE) 3,057 6.8 -10.2°
Reaches altitude 10° 02:33:20 10° 22° (NNE) 2,136 6.0 -9.9°
Maximum altitude 02:37:56 55° 100° (E) 821 2.9 -9.3°
Drops below altitude 10° 02:42:29 10° 178° (S) 2,119 4.4 -8.7°
Enters shadow 02:44:43 - 183° (S) 3,019 5.2 -8.4°
